Tracking 18942 objects as of 18-Jan-2018
HD Live streaming from Space Station
objects crossing your sky now

CZ-3B DEB

Track CZ-3B DEB now!


NORAD ID: 40166
Int'l Code: 2010-042T
Perigee: 1,491.3 km
Apogee: 39,599.3 km
Inclination: 26.5 °
Period: 732.5 minutes
Semi major axis: 26916 km
RCS: Unknown
Launch date: September 4, 2010
Source: People's Republic of China (PRC)
Launch site: Xichang Space Center, China (XSC)

Note: This is SATELLITE DEBRIS
aabbcc
Your satellite tracking list
Your tracking list is empty




NASA's NSSDC Master Catalog

Two Line Element Set (TLE):
1 40166U 10042T   18005.25964065 -.00000121  00000-0  00000+0 0  9999
2 40166  26.4820 304.2134 7078982 170.7922 358.6025  1.96598190 47038
Source of the keplerian elements: AFSPC